Home   Weather   Simi Valley   Past weeks

Flag for USA Past Weather in Simi Valley, California, USA — Yesterday and Last 2 Weeks

Now
76 °F

Scattered clouds.


Feels Like: 77 °F
Forecast: 54 / 77 °F
Wind: 17 mph from North

Location: Van Nuys Airport

Current Time: Apr 25, 2017 at 3:24:50 pm

Latest Report: Apr 25, 2017 at 2:51 pm


Visibility: 10 mi

Pressure: 29.85 "Hg

Humidity: 22%

Dew Point: 34 °F

Location of Simi ValleyLocation

Past Weather in Simi Valley — Graph

°F

Simi Valley Temperature Yesterday

Maximum temperature yesterday: 73 °F (at 12:51 pm)
Minimum temperature yesterday: 55 °F (at 5:51 am)
Average temperature yesterday: 64 °F

High & Low Weather Summary for the Past Weeks

 TemperatureHumidityPressure
High93 °F (Apr 21, 2:51 pm)93% (Apr 19, 2:51 am)30.12 "Hg (Apr 19, 2:51 am)
Low50 °F (Apr 11, 6:51 am)7% (Apr 21, 2:51 pm)29.77 "Hg (Apr 23, 4:51 pm)
Average66 °F48%29.95 "Hg
* Reported Apr 10 1:51 pm — Apr 25 1:51 pm, Simi Valley, Weather by CustomWeather, © 2017

Note: Actual official high and low records may vary slightly from our data, if they occured in-between our weather recording intervals... More about our weather records

Advertising

Simi Valley Weather History for the Previous 24 Hours

Scroll right to see more
 ConditionsComfort  
Time TempWeatherWind HumidityBarometerVisibility
1:51 pm
Tue, Apr 25
72 °FSunny.16 mph26%29.87 "Hg10 mi
12:51 pm72 °FSunny.20 mph24%29.88 "Hg10 mi
11:51 am70 °FPartly sunny.21 mph29%29.90 "Hg10 mi
10:51 am68 °FPartly sunny.23 mph32%29.90 "Hg10 mi
9:51 am65 °FPartly sunny.26 mph37%29.90 "Hg10 mi
8:51 am63 °FPartly sunny.26 mph41%29.85 "Hg10 mi
7:51 am61 °FPartly sunny.3 mph50%29.88 "Hg10 mi
6:51 am60 °FPartly sunny.15 mph52%29.86 "Hg10 mi
5:51 am59 °FPassing clouds.20 mph56%29.84 "Hg10 mi
4:51 am60 °FClear.25 mph53%29.83 "Hg10 mi
3:51 am62 °FClear.22 mph48%29.82 "Hg10 mi
2:51 am63 °FClear.21 mph45%29.83 "Hg10 mi
1:51 am63 °FClear.23 mph47%29.83 "Hg10 mi
12:51 am63 °FClear.22 mph48%29.84 "Hg10 mi
11:51 pm
Mon, Apr 24
64 °FClear.22 mph47%29.84 "Hg10 mi
10:51 pm66 °FClear.16 mph45%29.84 "Hg10 mi
9:51 pm67 °FClear.26 mph44%29.85 "Hg10 mi
8:51 pm63 °FClear.3 mph60%29.84 "Hg10 mi
7:51 pm64 °FClear.7 mph58%29.83 "Hg10 mi
6:51 pm67 °FSunny.7 mph51%29.83 "Hg10 mi
5:51 pm70 °FScattered clouds.8 mph47%29.83 "Hg10 mi
4:51 pm72 °FSunny.10 mph44%29.83 "Hg10 mi
3:51 pm72 °FSunny.12 mph46%29.85 "Hg10 mi
Weather by CustomWeather, © 2017

See weather overviewHow to use our weather pages